EW7072 Ponce PR US current weather conditions

sailwx.info

Wind from 053 at 2 knots gusting 6

Air temperature 30.0° C
Dewpoint 21.6° C

Last reported at 2019-Dec-08 14:45 UTC.
Time now 2019-Dec-08 15:27 UTC

Location: N 17°60' W 066°37'.
View on Google Maps.

See reports from other nearby stations

  
Tides and Currents Weather Stations Pressure Air Temp Water Temp Dewpoint Dewpoint Depression Visibility Wind Speed Wind Dir Waves Ship Positions
date/time (UTC)wind fromknots sea level pressurealtimeterstation pressurevisibilityair tempwater tempwave heightnotes
2019-Dec-08 15:00 119 3 gusting 7 30.0
2019-Dec-08 14:45 053 2 gusting 6 30.0
2019-Dec-08 14:30 167 2 gusting 6 29.4
2019-Dec-08 14:15 048 2 gusting 7 28.9
2019-Dec-08 14:00 130 1 gusting 6 28.3
2019-Dec-08 13:45 057 2 gusting 7 28.3
2019-Dec-08 13:32 054 2 gusting 6 27.8
2019-Dec-08 13:16 088 3 gusting 7 27.2
2019-Dec-08 13:01 053 2 gusting 4 26.1
2019-Dec-08 12:47 038 1 gusting 5 25.6
2019-Dec-08 12:32 036 3 gusting 5 25.0
2019-Dec-08 12:15 041 1 gusting 4 24.4
2019-Dec-08 12:01 032 1 gusting 4 23.3
2019-Dec-08 11:46 036 1 gusting 4 22.8
2019-Dec-08 11:30 034 1 gusting 5 22.2
2019-Dec-08 11:15 037 1 gusting 4 21.7
2019-Dec-08 11:00 022 0 gusting 2 21.7
2019-Dec-08 10:45 022 0 gusting 3 21.7
2019-Dec-08 10:30 022 22.2
2019-Dec-08 10:15 022 22.2
2019-Dec-08 10:00 022 22.2
2019-Dec-08 09:45 022 22.2
2019-Dec-08 09:30 022 22.2
2019-Dec-08 09:15 022 22.8
2019-Dec-08 09:00 022 1 gusting 3 22.8
2019-Dec-08 08:45 022 0 gusting 2 22.8
2019-Dec-08 08:31 022 22.8
2019-Dec-08 08:15 022 1 gusting 2 22.8
2019-Dec-08 08:00 022 23.3
2019-Dec-08 07:45 022 0 gusting 2 23.3
2019-Dec-08 07:31 022 23.3
2019-Dec-08 07:16 022 0 gusting 3 23.3
2019-Dec-08 07:01 018 0 gusting 3 23.3
2019-Dec-08 06:46 029 23.3
2019-Dec-08 06:31 029 23.3
2019-Dec-08 06:16 029 23.9
2019-Dec-08 06:01 029 23.9
2019-Dec-08 05:46 022 0 gusting 2 23.9
2019-Dec-08 05:31 022 23.9
2019-Dec-08 05:16 022 24.4
2019-Dec-08 05:01 022 24.4
2019-Dec-08 04:45 038 1 gusting 3 24.4
2019-Dec-08 04:30 036 0 gusting 3 24.4
2019-Dec-08 04:16 034 1 gusting 3 24.4
2019-Dec-08 04:01 034 1 gusting 4 24.4
2019-Dec-08 03:45 041 0 gusting 4 24.4
2019-Dec-08 03:30 046 2 gusting 4 24.4
2019-Dec-08 03:15 036 24.4
2019-Dec-08 03:00 036 0 gusting 3 24.4
2019-Dec-08 02:46 030 1 gusting 4 25.0
2019-Dec-08 02:30 034 0 gusting 5 25.0
2019-Dec-08 02:15 034 1 gusting 3 25.0
2019-Dec-08 02:00 034 0 gusting 2 25.0
2019-Dec-08 01:45 034 1 gusting 3 25.0
2019-Dec-08 01:30 035 25.6
2019-Dec-08 01:15 035 0 gusting 2 25.6
2019-Dec-08 01:00 034 0 gusting 3 25.6
2019-Dec-08 00:45 036 1 gusting 3 25.6
2019-Dec-08 00:30 051 1 gusting 3 25.6
2019-Dec-08 00:15 041 25.6
2019-Dec-08 00:00 040 1 gusting 4 25.6
2019-Dec-07 23:45 035 2 gusting 4 25.6
2019-Dec-07 23:30 049 1 gusting 3 26.1
2019-Dec-07 23:15 023 26.1
2019-Dec-07 23:00 023 26.1
2019-Dec-07 22:45 038 0 gusting 3 26.1
2019-Dec-07 22:30 042 3 gusting 8 26.7
2019-Dec-07 22:15 141 3 gusting 9 27.8
2019-Dec-07 22:00 139 3 gusting 11 28.3
2019-Dec-07 21:45 134 5 gusting 10 28.3
2019-Dec-07 21:30 162 5 gusting 12 28.3
2019-Dec-07 21:15 138 3 gusting 12 28.3
2019-Dec-07 21:00 133 5 gusting 11 28.9
2019-Dec-07 20:45 157 6 gusting 12 28.9
2019-Dec-07 20:30 172 7 gusting 14 29.4
2019-Dec-07 20:15 126 6 gusting 16 29.4
2019-Dec-07 20:00 163 6 gusting 13 29.4
2019-Dec-07 19:45 136 7 gusting 11 30.0
2019-Dec-07 19:30 135 6 gusting 12 30.0
2019-Dec-07 19:17 175 5 gusting 13 29.4
2019-Dec-07 19:01 169 7 gusting 13 30.0
2019-Dec-07 18:46 147 6 gusting 15 30.0
2019-Dec-07 18:31 159 7 gusting 17 30.0
2019-Dec-07 18:17 126 8 gusting 14 30.0
2019-Dec-07 18:02 133 7 gusting 15 30.0
2019-Dec-07 17:46 118 7 gusting 17 30.0
2019-Dec-07 17:32 190 6 gusting 13 30.6
2019-Dec-07 17:17 095 6 gusting 13 30.6
2019-Dec-07 17:02 157 6 gusting 13 31.1
2019-Dec-07 16:46 140 5 gusting 12 31.1
2019-Dec-07 16:31 180 5 gusting 11 30.6
2019-Dec-07 16:15 155 4 gusting 12 30.6
2019-Dec-07 16:01 138 6 gusting 12 30.6
2019-Dec-07 15:45 131 6 gusting 9 30.6
2019-Dec-07 15:31 164 6 gusting 10 30.6
2019-Dec-07 15:16 164 6 gusting 10 30.6
2019-Dec-07 15:01 150 4 gusting 8 30.6
2019-Dec-07 14:46 134 2 gusting 10 31.1
2019-Dec-07 14:30 125 4 gusting 9 30.0
2019-Dec-07 14:15 148 2 gusting 7 30.6
2019-Dec-07 14:00 155 3 gusting 7 30.0
2019-Dec-07 13:45 074 3 gusting 7 30.0
2019-Dec-07 13:30 049 1 gusting 4 28.9
2019-Dec-07 13:15 059 1 gusting 4 28.3
2019-Dec-07 13:00 030 27.2
2019-Dec-07 12:47 038 1 gusting 3 26.7
2019-Dec-07 12:31 028 1 gusting 3 25.6
2019-Dec-07 12:15 009 0 gusting 2 25.0
2019-Dec-07 12:02 009 23.9
2019-Dec-07 11:46 009 23.3
2019-Dec-07 11:30 009 22.8
2019-Dec-07 11:15 009 22.2
2019-Dec-07 11:00 009 22.2
2019-Dec-07 10:46 009 22.2
2019-Dec-07 10:31 009 22.2
2019-Dec-07 10:16 009 22.2
2019-Dec-07 10:00 005 0 gusting 2 22.2
2019-Dec-07 09:45 034 0 gusting 1 22.2
2019-Dec-07 09:30 034 22.2
2019-Dec-07 09:15 034 22.2
2019-Dec-07 09:00 034 22.2
2019-Dec-07 08:45 034 22.8
2019-Dec-07 08:30 034 22.8
2019-Dec-07 08:15 034 22.8
2019-Dec-07 08:00 034 22.8
2019-Dec-07 07:45 034 22.8
2019-Dec-07 07:30 034 22.8
2019-Dec-07 07:15 034 22.8
2019-Dec-07 07:00 034 23.3
2019-Dec-07 06:45 034 23.3
2019-Dec-07 06:30 034 23.3
2019-Dec-07 06:02 034 23.3
2019-Dec-07 05:47 034 0 gusting 3 23.3
2019-Dec-07 05:32 034 0 gusting 2 23.3
2019-Dec-07 05:16 034 0 gusting 2 23.3
2019-Dec-07 05:01 034 23.3
2019-Dec-07 04:46 034 23.9
2019-Dec-07 04:31 034 23.9
2019-Dec-07 04:17 034 0 gusting 1 23.9
2019-Dec-07 04:01 034 23.9
2019-Dec-07 03:46 034 24.4
2019-Dec-07 03:31 034 24.4
2019-Dec-07 03:16 034 0 gusting 3 24.4
2019-Dec-07 03:01 034 24.4
2019-Dec-07 02:47 034 0 gusting 2 25.0
2019-Dec-07 02:31 034 25.0
2019-Dec-07 02:16 034 0 gusting 4 25.0
2019-Dec-07 02:01 032 1 gusting 3 25.0
2019-Dec-07 01:45 032 0 gusting 2 25.6
2019-Dec-07 01:31 031 0 gusting 4 25.6
2019-Dec-07 01:15 066 1 gusting 3 25.6
2019-Dec-07 01:01 048 1 gusting 4 25.6
2019-Dec-07 00:46 055 2 gusting 5 25.6
2019-Dec-07 00:31 057 2 gusting 5 26.1
2019-Dec-07 00:15 022 2 gusting 4 26.1
2019-Dec-07 00:00 046 1 gusting 5 26.7
2019-Dec-06 23:46 048 2 gusting 5 26.7
2019-Dec-06 23:31 067 1 gusting 4 26.7
2019-Dec-06 23:15 052 2 gusting 5 27.2
2019-Dec-06 23:00 093 2 gusting 5 27.2
2019-Dec-06 22:45 091 3 gusting 5 27.2
2019-Dec-06 22:30 038 1 gusting 5 27.8
2019-Dec-06 22:15 038 1 gusting 6 27.8
2019-Dec-06 22:00 146 2 gusting 7 28.3
2019-Dec-06 21:45 111 4 gusting 11 28.3
2019-Dec-06 21:31 138 6 gusting 12 28.9
2019-Dec-06 21:16 138 6 gusting 12 28.9
2019-Dec-06 21:00 158 7 gusting 16 29.4
2019-Dec-06 20:46 072 8 gusting 13 29.4
2019-Dec-06 20:30 125 9 gusting 16 29.4
2019-Dec-06 20:15 130 6 gusting 15 30.0
2019-Dec-06 20:00 166 8 gusting 13 30.0
2019-Dec-06 19:45 162 7 gusting 17 30.0
2019-Dec-06 19:30 143 9 gusting 15 30.0
2019-Dec-06 19:15 128 7 gusting 15 30.0
2019-Dec-06 19:00 167 8 gusting 17 30.0
2019-Dec-06 18:45 140 7 gusting 16 30.0
2019-Dec-06 18:31 141 8 gusting 15 30.0
2019-Dec-06 18:15 186 10 gusting 17 30.0
2019-Dec-06 18:00 172 11 gusting 15 30.0
2019-Dec-06 17:45 132 6 gusting 17 30.6
2019-Dec-06 17:30 124 8 gusting 14 30.6
2019-Dec-06 17:15 175 8 gusting 16 30.6
2019-Dec-06 17:00 148 10 gusting 18 30.0
2019-Dec-06 16:45 121 7 gusting 15 30.6
2019-Dec-06 16:30 139 9 gusting 15 30.6
2019-Dec-06 16:15 131 8 gusting 14 30.6
2019-Dec-06 16:00 131 6 gusting 14 30.6
2019-Dec-06 15:45 146 8 gusting 15 30.6
2019-Dec-06 15:30 164 8 gusting 14 30.6
2019-Dec-06 15:17 166 9 gusting 15 30.6
2019-Dec-06 15:01 138 10 gusting 15 30.0